CW3517 Weather Reports


time (UTC)temp
C
wind
direction
speed
KPH
gust
KPH
rain 1hr
cm
rain 24hr
cm
rain mn
cm
humidity
%
barometer
mb
20260505185003 12 32 12.9 19.3 0.00 0.00 0.00 66 1012.4
20260505184003 13 29 12.9 20.9 0.00 0.00 0.00 66 1012.4
20260505183003 13 25 12.9 22.5 0.00 0.00 0.00 65 1012.4
20260505182003 13 27 11.3 19.3 0.00 0.00 0.00 64 1012.4
20260505181216 13 32 11.3 19.3 0.00 0.00 0.00 64 1012.4
20260505180003 13 24 11.3 19.3 0.00 0.00 0.00 63 1012.4
20260505175218 13 14 8.0 19.3 0.00 0.00 0.00 63 1012.3
20260505174003 14 10 6.4 16.1 0.00 0.00 0.00 61 1012.4
20260505173003 14 19 6.4 16.1 0.00 0.00 0.00 62 1012.5
20260505172003 14 21 12.9 24.1 0.00 0.00 0.00 61 1012.4
20260505171218 14 22 14.5 22.5 0.00 0.00 0.00 60 1012.5
20260505170003 15 10 8.0 25.7 0.00 0.00 0.00 60 1012.5
20260505165218 15 3 11.3 27.4 0.00 0.00 0.00 58 1012.4
20260505164003 15 1 8.0 24.1 0.00 0.00 0.00 56 1012.4
20260505163003 16 8 6.4 14.5 0.00 0.00 0.00 58 1012.4
20260505162217 16 2 8.0 20.9 0.00 0.00 0.00 56 1012.4
20260505161003 17 15 11.3 24.1 0.00 0.00 0.00 53 1012.5
20260505160217 16 2 8.0 19.3 0.00 0.00 0.00 58 1012.5
20260505153003 16 357 8.0 22.5 0.00 0.00 0.00 56 1012.6
20260505152003 16 327 6.4 19.3 0.00 0.00 0.00 56 1012.6
20260505151003 16 341 8.0 22.5 0.00 0.00 0.00 57 1012.7
20260505125003 16 16 8.0 19.3 0.00 0.00 0.00 59 1013.2
20260505124003 16 323 8.0 19.3 0.00 0.00 0.00 59 1013.2
20260505123003 16 28 11.3 24.1 0.00 0.00 0.00 57 1013.1
20260505122003 17 24 8.0 19.3 0.00 0.00 0.00 61 1013.2
20260505121003 16 23 6.4 16.1 0.00 0.00 0.00 62 1013.3
20260505120218 16 19 8.0 20.9 0.00 0.00 0.00 60 1013.3
20260505115003 16 17 8.0 25.7 0.00 0.00 0.00 61 1013.3
20260505114003 15 6 11.3 24.1 0.00 0.00 0.00 58 1013.3
20260505113003 16 4 11.3 24.1 0.00 0.00 0.00 58 1013.4
20260505112003 16 12 12.9 24.1 0.00 0.00 0.00 59 1013.5
20260505111003 17 15 8.0 22.5 0.00 0.00 0.00 61 1013.5
20260505102003 16 47 11.3 16.1 0.00 0.00 0.00 66 1013.7
20260505101003 16 34 11.3 19.3 0.00 0.00 0.00 67 1013.7
20260505100003 15 36 11.3 20.9 0.00 0.00 0.00 63 1013.8
20260505095003 15 38 12.9 19.3 0.00 0.00 0.00 68 1013.8
20260505094003 14 35 12.9 22.5 0.00 0.00 0.00 68 1013.8
20260505093005 14 24 8.0 16.1 0.00 0.00 0.00 71 1013.8
20260505092003 13 30 8.0 19.3 0.00 0.00 0.00 73 1013.8
20260505091003 12 24 12.9 22.5 0.00 0.00 0.00 73 1013.9
20260505090005 12 17 8.0 16.1 0.00 0.00 0.00 78 1013.9
20260505085004 12 36 11.3 19.3 0.00 0.00 0.00 75 1013.9
20260505084004 12 17 8.0 20.9 0.00 0.00 0.00 76 1013.9
20260505083005 13 21 8.0 19.3 0.00 0.00 0.00 79 1014.0
20260505082003 12 27 14.5 22.5 0.00 0.00 0.00 82 1014.0
20260505081003 12 21 11.3 20.9 0.00 0.00 0.00 82 1014.0
20260505080216 12 36 8.0 16.1 0.00 0.00 0.00 85 1014.0
20260505075003 11 37 8.0 19.3 0.00 0.00 0.00 87 1013.9
20260505074003 11 28 8.0 16.1 0.00 0.00 0.00 88 1014.0
20260505073216 11 27 11.3 19.3 0.00 0.00 0.00 88 1013.9
20260505072003 11 23 8.0 19.3 0.00 0.00 0.00 90 1014.0
20260505071003 10 29 6.4 16.1 0.00 0.00 0.00 91 1014.0
20260505070218 10 38 6.4 16.1 0.00 0.00 0.00 92 1014.0
20260505065218 10 35 4.8 12.9 0.00 0.00 0.00 93 1014.1
20260505064003 10 32 4.8 12.9 0.00 0.00 0.00 94 1014.0
20260505063003 10 21 4.8 12.9 0.00 0.00 0.00 95 1014.0
20260505062003 9 25 4.8 12.9 0.00 0.00 0.00 95 1014.0
20260505061003 9 18 4.8 12.9 0.00 0.00 0.00 95 1013.9
20260505060003 9 21 4.8 11.3 0.00 0.00 0.00 96 1013.8
20260505055003 9 21 3.2 14.5 0.00 0.00 0.00 96 1013.8
20260505054003 9 28 4.8 12.9 0.00 0.00 0.00 96 1013.7
20260505053003 8 5 3.2 11.3 0.00 0.00 0.00 96 1013.7
20260505052003 8 357 3.2 9.7 0.00 0.00 0.00 97 1013.7
20260505051003 8 356 3.2 9.7 0.00 0.00 0.00 97 1013.6
20260505041217 8 0 0.0 3.2 0.00 0.00 0.00 96 1013.7
20260505040004 8 30 1.6 6.4 0.00 0.00 0.00 96 1013.5
20260505035003 8 347 1.6 6.4 0.00 0.00 0.00 96 1013.4
20260505034003 8 0 0.0 0.0 0.00 0.00 0.00 94 1013.4
20260505033003 9 0 0.0 3.2 0.00 0.00 0.00 95 1013.4
20260505032217 9 16 1.6 6.4 0.00 0.00 0.00 95 1013.4
20260505031217 10 12 3.2 9.7 0.00 0.00 0.00 95 1013.3
20260505030003 10 358 3.2 8.0 0.00 0.00 0.00 95 1013.4
20260505025003 10 356 1.6 6.4 0.00 0.00 0.00 95 1013.4
20260505024003 10 353 1.6 6.4 0.00 0.00 0.00 95 1013.5
20260505023003 10 15 1.6 4.8 0.00 0.00 0.00 95 1013.5
20260505022003 10 19 1.6 3.2 0.00 0.00 0.00 95 1013.6
20260505021003 10 0 0.0 3.2 0.00 0.00 0.00 95 1013.7
20260505020003 10 19 1.6 3.2 0.00 0.00 0.00 95 1013.7
20260505015004 10 25 1.6 4.8 0.00 0.00 0.00 95 1013.8
20260505014003 10 16 3.2 6.4 0.00 0.00 0.00 95 1013.8
20260505013003 10 8 3.2 8.0 0.00 0.00 0.00 95 1013.8
20260505012003 10 6 3.2 8.0 0.00 0.00 0.00 95 1013.9
20260505011003 10 333 1.6 4.8 0.00 0.00 0.00 95 1013.9
20260505010218 10 319 3.2 8.0 0.00 0.00 0.00 95 1013.9
20260505005003 10 12 1.6 4.8 0.00 0.00 0.00 95 1014.0
20260505004003 10 47 1.6 6.4 0.00 0.00 0.00 96 1014.2
20260505003218 10 56 3.2 6.4 0.00 0.00 0.00 96 1014.2
20260505002004 10 0 0.0 0.0 0.00 0.00 0.00 96 1014.3
20260505001003 10 0 0.0 0.0 0.00 0.00 0.00 96 1014.4
20260505000003 10 0 0.0 0.0 0.00 0.00 0.00 96 1014.3
20260504235003 10 0 0.0 1.6 0.00 0.00 0.00 94 1014.3
20260504234004 10 316 1.6 4.8 0.00 0.00 0.00 94 1014.4
20260504233003 10 338 3.2 4.8 0.00 0.00 0.00 94 1014.3
20260504232004 10 8 1.6 6.4 0.00 0.00 0.00 94 1014.2
20260504231004 10 342 1.6 6.4 0.00 0.00 0.00 94 1014.2
20260504230219 11 333 4.8 9.7 0.00 0.00 0.00 94 1014.1
20260504225004 11 351 3.2 8.0 0.00 0.00 0.00 94 1014.1
20260504224003 11 18 3.2 6.4 0.00 0.00 0.00 93 1014.2
20260504223003 11 0 0.0 4.8 0.00 0.00 0.00 93 1014.3
20260504222003 11 0 0.0 0.0 0.00 0.00 0.00 92 1014.3
20260504221003 11 0 0.0 3.2 0.00 0.00 0.00 92 1014.3
20260504220005 11 322 1.6 4.8 0.00 0.00 0.00 92 1014.3
20260504215003 11 0 0.0 3.2 0.00 0.00 0.00 91 1014.3
20260504214003 12 322 1.6 4.8 0.00 0.00 0.00 90 1014.3
20260504213003 12 338 1.6 6.4 0.00 0.00 0.00 90 1014.3
20260504212003 12 23 1.6 6.4 0.00 0.00 0.00 90 1014.3
20260504211005 12 25 1.6 4.8 0.00 0.00 0.00 91 1014.2
20260504210004 12 31 3.2 8.0 0.00 0.00 0.00 91 1014.2
20260504205003 12 41 4.8 8.0 0.00 0.00 0.00 91 1014.2
20260504204003 12 51 3.2 6.4 0.00 0.00 0.00 92 1014.4
20260504203003 12 69 1.6 4.8 0.00 0.00 0.00 92 1014.3
20260504202003 13 73 1.6 4.8 0.00 0.00 0.00 92 1014.4
20260504201003 13 76 1.6 3.2 0.00 0.00 0.00 92 1014.1
20260504200004 13 77 1.6 4.8 0.00 0.00 0.00 92 1014.0
20260504195003 13 0 0.0 1.6 0.00 0.00 0.00 91 1014.0
20260504194003 13 77 1.6 6.4 0.00 0.00 0.00 91 1014.0
20260504193218 13 54 3.2 8.0 0.00 0.00 0.00 91 1013.8
20260504192003 13 53 3.2 6.4 0.00 0.00 0.00 90 1013.7
20260504191003 13 46 4.8 9.7 0.00 0.00 0.00 90 1013.7
20260504190218 13 53 6.4 11.3 0.00 0.00 0.00 90 1013.7